BERGEN / FLESLAND current weather conditions

sailwx.info

Wind from 120 at 8 knots

Air temperature 1.0° C
Visibility: greater than 5.4 NM
Dewpoint -0.0° C

Last reported at 2015-Mar-03 22:20 UTC.
Time now 2015-Mar-04 00:11 UTC

Location: N 60°17' E 005°14'.
View on Google Maps.

See reports from other nearby stations

  
Tides and Currents Weather Stations Pressure Air Temp Water Temp Dewpoint Dewpoint Depression Visibility Wind Speed Wind Dir Waves Ship Positions
date/time (UTC)wind fromknots sea level pressurealtimeterstation pressurevisibilityair tempwater tempwave heightnotes
2015-Mar-03 23:50 130 10 5.4 1.0 Showers in the vicinity.
2015-Mar-03 23:20 120 8 5.4 1.0 Light snow showers.
2015-Mar-03 22:50 130 8 5.4 1.0
2015-Mar-03 22:20 120 8 5.4 1.0
2015-Mar-03 21:50 130 9 5.4 1.0
2015-Mar-03 21:20 130 9 5.4 1.0 Light snow showers.
2015-Mar-03 20:50 120 9 4.9 1.0 Light snow showers.
2015-Mar-03 20:20 110 7 3.8 1.0 Small hail/snow pellets showers.
2015-Mar-03 19:50 130 7 4.9 1.0 Light snow showers.
2015-Mar-03 19:20 120 5 5.4 1.0 Light snow rain.
2015-Mar-03 18:50 160 8 5.4 2.0 Snow showers.
2015-Mar-03 18:20 150 8 5.4 1.0
2015-Mar-03 17:50 140 7 5.4 1.0
2015-Mar-03 17:20 130 7 5.4 1.0
2015-Mar-03 16:50 140 7 5.4 2.0 Showers in the vicinity.
2015-Mar-03 16:20 140 5 5.4 2.0
2015-Mar-03 15:50 100 4 5.4 2.0
2015-Mar-03 15:20 210 4 5.4 2.0 Showers in the vicinity.
2015-Mar-03 14:50 220 7 5.4 2.0 Showers in the vicinity.
2015-Mar-03 14:20 180 8 5.4 2.0 Light rain snow.
2015-Mar-03 13:50 150 11 2.2 2.0 Light rain showers. Thunderstorm.
2015-Mar-03 13:20 160 13 5.4 2.0 Light rain showers.
2015-Mar-03 12:50 140 12 5.4 2.0 Showers in the vicinity.
2015-Mar-03 12:20 160 13 5.4 2.0 Showers in the vicinity.
2015-Mar-03 11:50 150 11 5.4 2.0 Light rain showers.
2015-Mar-03 11:20 140 10 5.4 2.0 Showers in the vicinity.
2015-Mar-03 10:50 160 11 5.4 2.0 Showers in the vicinity.
2015-Mar-03 10:20 150 11 5.4 1.0 Showers in the vicinity.
2015-Mar-03 09:50 140 9 5.4 2.0 Showers in the vicinity.
2015-Mar-03 09:20 150 11 5.4 2.0 Showers in the vicinity.
2015-Mar-03 08:50 140 8 5.4 2.0 Showers in the vicinity.
2015-Mar-03 08:20 130 9 5.4 1.0 Showers in the vicinity.
2015-Mar-03 07:50 130 8 5.4 1.0 Showers in the vicinity.
2015-Mar-03 07:20 110 4 5.4-0.0 Light small hail/snow pellets showers.
2015-Mar-03 06:50 130 6 4.9-0.0 Rain showers.
2015-Mar-03 06:20 160 12 1.6-0.0 Rain showers.
2015-Mar-03 05:50 140 6 5.4 1.0 Light snow showers.
2015-Mar-03 05:20 220 5 2.7 1.0 Rain showers.
2015-Mar-03 04:50 150 6 2.2 2.0 Rain showers. Mist.
2015-Mar-03 04:20 140 5 5.4 2.0
2015-Mar-03 03:50 160 3 5.4 2.0
2015-Mar-03 02:50 240 5 5.4 2.0
2015-Mar-03 00:50 160 8 5.4 3.0 Showers in the vicinity.
2015-Mar-02 23:50 130 5 5.4 2.0
2015-Mar-02 22:50 140 7 5.4 2.0
2015-Mar-02 22:20 130 5 5.4 2.0
2015-Mar-02 21:50 120 3 5.4 2.0
2015-Mar-02 21:20 120 4 5.4 2.0
2015-Mar-02 20:50 160 7 5.4 2.0 Showers in the vicinity.
2015-Mar-02 20:20 230 9 5.4 2.0 Light rain showers.
2015-Mar-02 19:50 240 8 5.4 2.0 Light rain showers.
2015-Mar-02 19:20 130 5 5.4 3.0 Showers in the vicinity.
2015-Mar-02 18:50 130 5 5.4 3.0
2015-Mar-02 18:20 130 5 5.4 3.0
2015-Mar-02 17:50 150 4 5.4 3.0
2015-Mar-02 17:20 160 4 5.4 3.0
2015-Mar-02 16:50 200 5 5.4 4.0
2015-Mar-02 16:20 190 4 5.4 5.0
2015-Mar-02 15:50 5.4 6.0
2015-Mar-02 15:20 250 4 5.4 6.0
2015-Mar-02 14:50 250 5 5.4 5.0
2015-Mar-02 14:20 230 6 5.4 6.0
2015-Mar-02 13:50 260 4 5.4 7.0
2015-Mar-02 13:20 340 4 5.4 7.0
2015-Mar-02 12:50 340 6 5.4 6.0
2015-Mar-02 12:20 330 5 5.4 6.0
2015-Mar-02 11:50 330 8 5.4 6.0
2015-Mar-02 11:20 320 7 5.4 5.0
2015-Mar-02 10:50 330 5 5.4 5.0
2015-Mar-02 10:20 320 6 5.4 5.0
2015-Mar-02 09:50 330 8 5.4 4.0
2015-Mar-02 09:20 330 7 5.4 4.0
2015-Mar-02 08:50 320 10 5.4 4.0
2015-Mar-02 08:20 220 5 5.4 4.0 Light rain showers.
2015-Mar-02 07:50 140 9 5.4 3.0
2015-Mar-02 07:20 150 9 5.4 3.0 Light rain showers.
2015-Mar-02 06:50 160 15 5.4 3.0 Light rain showers.
2015-Mar-02 06:20 140 10 5.4 3.0 Light rain showers.
2015-Mar-02 05:50 170 15 4.9 3.0 Light rain showers.
2015-Mar-02 05:20 160 12 5.4 3.0 Light rain showers.
2015-Mar-02 04:50 150 11 5.4 3.0 Light rain showers.
2015-Mar-02 04:20 160 13 5.4 3.0
2015-Mar-02 03:50 160 14 5.4 4.0
2015-Mar-02 02:50 170 15 5.4 3.0 Light rain showers.
2015-Mar-02 01:50 160 16 5.4 4.0
2015-Mar-02 00:50 160 16 5.4 5.0